Location: Newark
(41.8922°N, 9.0050°E)
Time: 07:25:54
(UTC+00:00)

Envisat - Pass Details

Date: 26 January 2020
Orbit: 764 x 766 km, 98.1° (Epoch: 20 February)

Event Time Altitude Azimuth Distance (km) Brightness Sun altitude
Rises 05:34:54 0° 19° (NNE) 3,240 6.3 -12.7°
Reaches altitude 10° 05:37:20 10° 27° (NNE) 2,309 5.6 -12.3°
Maximum altitude 05:42:10 43° 98° (E) 1,073 4.4 -11.4°
Drops below altitude 10° 05:46:57 10° 169° (S) 2,293 5.8 -10.5°
Sets 05:49:21 0° 176° (S) 3,214 6.5 -10.1°
